Jacksonville, IL

5:16 AM CST on December 13, 2019 (GMT -0600)
Jacksonville Municipal

Weather History for KIJX - November, 2019

Change the Weather History Date:

Tuesday, November 12, 2019

  Actual Average (KSPI) Record (KSPI)
Temperature  
Mean Temperature 10 °F -  
Max Temperature 16 °F 50 °F 75 °F (1971)
Min Temperature 3 °F 31 °F 5 °F (2019)
Degree Days  
Heating Degree Days 56    
Moisture  
Dew Point 2 °F    
Average Humidity 67    
Maximum Humidity 81    
Minimum Humidity 52    
Precipitation  
Precipitation 0.00 in - - ()
Sea Level Pressure  
Sea Level Pressure 30.53 in    
Wind  
Wind Speed 8 mph ()    
Max Wind Speed 16 mph    
Max Gust Speed 18 mph    
Visibility 10.0 miles    
Events      
Averages and records for this station are not official NWS values.
T = Trace of Precipitation, MM = Missing Value Source: Averaged Metar Reports

Daily Weather History Graph

Daily Weather History Graph

Search for Another Location

Airport or City:

Astronomy

Nov. 12, 2019 Rise Set
Actual Time 6:41 AM CST 4:47 PM CST
Civil Twilight 6:13 AM CST 5:16 PM CST
Nautical Twilight 5:40 AM CST 5:48 PM CST
Astronomical Twilight 5:08 AM CST 6:20 PM CST
Moon 5:14 PM CST (11/12) 6:33 AM CST (11/12)
Length of Visible Light 11h 03m
Length of Day
10h 05m
Full, 100% of the Moon is Illuminated
Nov 12
Full
Nov 19
Last Quarter
Nov 26
New
Dec 4
First Quarter
Dec 11
Full

Hourly Weather History & Observations

Time (CST) Temp. Windchill Dew Point Humidity Pressure Visibility Wind Dir Wind Speed Gust Speed Precip Events Conditions
12:15 AM 12.4 °F -2.3 °F 3.9 °F 69% 30.54 in 10.0 mi NW 12.7 mph - N/A   Clear
12:35 AM 12.2 °F -2.5 °F 3.6 °F 68% 30.54 in 10.0 mi NW 12.7 mph 18.4 mph N/A   Clear
12:55 AM 11.8 °F -4.8 °F 3.2 °F 68% 30.54 in 10.0 mi NW 16.1 mph - N/A   Clear
1:15 AM 11.8 °F -3.0 °F 3.4 °F 69% 30.54 in 10.0 mi NW 12.7 mph - N/A   Clear
1:35 AM 11.1 °F -4.5 °F 3.6 °F 72% 30.54 in 10.0 mi NW 13.8 mph 18.4 mph N/A   Clear
1:50 AM 11.1 °F -5.1 °F 3.7 °F 72% 30.54 in 10.0 mi NW 15.0 mph - N/A   Clear
2:15 AM 10.8 °F -4.3 °F 3.7 °F 73% 30.55 in 10.0 mi NW 12.7 mph - N/A   Clear
2:35 AM 10.4 °F -4.1 °F 3.7 °F 74% 30.55 in 10.0 mi NW 11.5 mph 17.3 mph N/A   Clear
2:55 AM 10.2 °F -6.3 °F 3.2 °F 73% 30.55 in 10.0 mi NW 15.0 mph - N/A   Clear
3:15 AM 10.0 °F -3.7 °F 3.0 °F 73% 30.55 in 10.0 mi NW 10.4 mph 18.4 mph N/A   Clear
3:35 AM 9.9 °F -5.5 °F 2.8 °F 73% 30.56 in 10.0 mi NW 12.7 mph 18.4 mph N/A   Clear
3:55 AM 9.1 °F -4.0 °F 2.3 °F 74% 30.56 in 10.0 mi NW 9.2 mph - N/A   Clear
4:15 AM 8.6 °F -4.7 °F 1.9 °F 74% 30.56 in 10.0 mi NW 9.2 mph - N/A   Clear
4:35 AM 8.4 °F -6.5 °F 1.9 °F 75% 30.56 in 10.0 mi NW 11.5 mph - N/A   Clear
4:55 AM 8.2 °F -6.0 °F 1.8 °F 75% 30.57 in 10.0 mi NW 10.4 mph - N/A   Clear
5:15 AM 7.3 °F -4.1 °F 1.0 °F 75% 30.57 in 10.0 mi NW 6.9 mph - N/A   Clear
5:35 AM 6.8 °F -6.9 °F 0.7 °F 76% 30.57 in 10.0 mi NW 9.2 mph - N/A   Clear
5:55 AM 6.6 °F -5.0 °F 0.5 °F 76% 30.58 in 10.0 mi NW 6.9 mph - N/A   Clear
6:15 AM 6.3 °F -5.4 °F 0.3 °F 77% 30.58 in 10.0 mi NW 6.9 mph - N/A   Clear
6:35 AM 3.7 °F -7.1 °F -1.5 °F 79% 30.59 in 10.0 mi WNW 5.8 mph - N/A   Clear
6:55 AM 3.7 °F -8.4 °F -0.9 °F 81% 30.60 in 10.0 mi WNW 6.9 mph - N/A   Clear
7:15 AM 5.5 °F -6.3 °F 0.1 °F 78% 30.60 in 10.0 mi NW 6.9 mph - N/A   Clear
7:35 AM 6.4 °F -6.3 °F 0.9 °F 78% 30.60 in 10.0 mi NW 8.1 mph - N/A   Clear
7:55 AM 7.5 °F -5.0 °F 1.4 °F 76% 30.61 in 10.0 mi NW 8.1 mph - N/A   Clear
8:15 AM 8.4 °F -3.9 °F 1.9 °F 75% 30.61 in 10.0 mi NW 8.1 mph - N/A   Clear
8:35 AM 9.0 °F -5.1 °F 1.4 °F 71% 30.61 in 10.0 mi NNW 10.4 mph - N/A   Clear
8:55 AM 9.5 °F -3.5 °F 2.3 °F 73% 30.61 in 10.0 mi NW 9.2 mph - N/A   Clear
9:15 AM 10.0 °F -1.9 °F 2.3 °F 71% 30.61 in 10.0 mi NW 8.1 mph - N/A   Clear
9:35 AM 10.4 °F 0.8 °F 2.1 °F 69% 30.61 in 10.0 mi NW 5.8 mph - N/A   Clear
9:55 AM 11.7 °F 3.7 °F 3.0 °F 68% 30.62 in 10.0 mi WNW 4.6 mph - N/A   Clear
10:15 AM 12.2 °F 1.7 °F 2.5 °F 65% 30.63 in 10.0 mi WNW 6.9 mph - N/A   Clear
10:35 AM 12.9 °F 6.9 °F 3.0 °F 65% 30.62 in 10.0 mi NW 3.5 mph - N/A   Clear
10:55 AM 13.6 °F 3.5 °F 3.7 °F 65% 30.61 in 10.0 mi West 6.9 mph - N/A   Clear
11:15 AM 14.0 °F 6.5 °F 3.4 °F 63% 30.60 in 10.0 mi WSW 4.6 mph - N/A   Clear
11:35 AM 14.2 °F 4.1 °F 3.2 °F 62% 30.60 in 10.0 mi West 6.9 mph - N/A   Clear
11:55 AM 14.7 °F 4.8 °F 2.7 °F 59% 30.59 in 10.0 mi West 6.9 mph - N/A   Clear
12:15 PM 14.7 °F 3.8 °F 3.4 °F 61% 30.58 in 10.0 mi West 8.1 mph - N/A   Clear
12:35 PM 15.1 °F 5.2 °F 3.4 °F 60% 30.57 in 10.0 mi West 6.9 mph - N/A   Clear
12:55 PM 15.6 °F 5.9 °F 1.9 °F 55% 30.57 in 10.0 mi West 6.9 mph - N/A   Clear
1:15 PM 16.2 °F 5.5 °F 3.2 °F 57% 30.56 in 10.0 mi West 8.1 mph - N/A   Clear
1:35 PM 16.2 °F 6.5 °F 2.8 °F 56% 30.54 in 10.0 mi West 6.9 mph - N/A   Clear
1:55 PM 16.5 °F 8.1 °F 3.4 °F 56% 30.54 in 10.0 mi West 5.8 mph - N/A   Clear
2:15 PM 16.9 °F 8.5 °F 2.5 °F 53% 30.53 in 10.0 mi West 5.8 mph - N/A   Clear
2:35 PM 16.7 °F 7.2 °F 2.1 °F 53% 30.53 in 10.0 mi West 6.9 mph - N/A   Clear
2:55 PM 16.9 °F 5.5 °F 2.3 °F 53% 30.52 in 10.0 mi West 9.2 mph - N/A   Clear
3:15 PM 16.7 °F 9.6 °F 1.9 °F 52% 30.51 in 10.0 mi West 4.6 mph - N/A   Clear
3:35 PM 16.7 °F 11.2 °F 2.7 °F 54% 30.51 in 10.0 mi WNW 3.5 mph - N/A   Clear
3:55 PM 16.3 °F 10.8 °F 2.5 °F 55% 30.51 in 10.0 mi WNW 3.5 mph - N/A   Clear
4:15 PM 16.2 °F 10.6 °F 3.6 °F 58% 30.51 in 10.0 mi West 3.5 mph - N/A   Clear
4:35 PM 15.8 °F - 2.5 °F 56% 30.51 in 10.0 mi Calm Calm - N/A   Clear
4:55 PM 13.6 °F - 2.5 °F 61% 30.51 in 10.0 mi Calm Calm - N/A   Clear
5:15 PM 12.4 °F 6.3 °F 1.4 °F 62% 30.50 in 10.0 mi South 3.5 mph - N/A   Clear
5:35 PM 12.2 °F 6.1 °F 2.1 °F 64% 30.50 in 10.0 mi South 3.5 mph - N/A   Clear
5:55 PM 13.1 °F 7.1 °F 1.8 °F 61% 30.49 in 10.0 mi South 3.5 mph - N/A   Clear
6:15 PM 13.5 °F - 1.2 °F 58% 30.48 in 10.0 mi Calm Calm - N/A   Clear
6:35 PM 11.5 °F 2.1 °F 1.4 °F 64% 30.47 in 10.0 mi South 5.8 mph - N/A   Clear
6:55 PM 11.3 °F 5.1 °F 2.3 °F 67% 30.47 in 10.0 mi SSE 3.5 mph - N/A   Clear
7:15 PM 11.7 °F 3.7 °F 2.1 °F 66% 30.46 in 10.0 mi South 4.6 mph - N/A   Clear
7:35 PM 11.8 °F 3.9 °F 2.3 °F 66% 30.46 in 10.0 mi SSE 4.6 mph - N/A   Clear
7:55 PM 11.7 °F 2.3 °F 2.5 °F 67% 30.45 in 10.0 mi South 5.8 mph - N/A   Clear
8:15 PM 11.3 °F 3.3 °F 2.1 °F 67% 30.44 in 10.0 mi SSE 4.6 mph - N/A   Clear
8:35 PM 11.1 °F 3.1 °F 1.9 °F 67% 30.44 in 10.0 mi SSE 4.6 mph - N/A   Clear
8:55 PM 11.1 °F 0.4 °F 2.1 °F 67% 30.43 in 10.0 mi SSE 6.9 mph - N/A   Clear
9:15 PM 11.1 °F 1.7 °F 2.1 °F 67% 30.43 in 10.0 mi SSE 5.8 mph - N/A   Clear
9:35 PM 11.3 °F 0.7 °F 2.1 °F 67% 30.42 in 10.0 mi SSE 6.9 mph - N/A   Clear
9:55 PM 11.7 °F 0.0 °F 2.1 °F 66% 30.41 in 10.0 mi SSE 8.1 mph - N/A   Clear
10:15 PM 12.0 °F 1.5 °F 2.1 °F 65% 30.41 in 10.0 mi SSE 6.9 mph - N/A   Clear
10:35 PM 11.8 °F 0.3 °F 2.1 °F 65% 30.40 in 10.0 mi SSE 8.1 mph - N/A   Clear
10:55 PM 11.3 °F -1.3 °F 2.1 °F 67% 30.39 in 10.0 mi SSE 9.2 mph - N/A   Clear
11:15 PM 11.5 °F 2.1 °F 2.1 °F 66% 30.40 in 10.0 mi SSE 5.8 mph - N/A   Clear
11:35 PM 11.1 °F -1.6 °F 2.1 °F 67% 30.39 in 10.0 mi SSE 9.2 mph - N/A   Clear
11:55 PM 11.1 °F -2.4 °F 2.1 °F 67% 30.38 in 10.0 mi SSE 10.4 mph - N/A   Clear